カタログに戻る

COSMOS 1823 DEB

運用中LEO
NORAD 39820·DEBRIS·🇷🇺 Russia

打ち上げ Feb 20, 1987 から Plesetsk Cosmodrome

Loading…

次のパス (今後24時間)

TLE

経年Source: Space-Track

元期: Sep 9, 2026, 07:04 UTC

1 39820U 87020EU  26252.29448330  .00000072  00000-0  62346-3 0  9992
2 39820  73.6309 223.5860 0026391 322.5807 104.0208 12.45776379557751

AllMySatでCOSMOS 1823 DEBをリアルタイム追跡

Download on the App Store